Overview Statistics Trail Chart Weather Telemetry Raw packets
 

This is the latest recevied weather packets stored in our database for station/object W5ADC. If no packets are shown the sender has not sent any weather packets the latest 10 day(s).

<< 19 20 21 22 23 24 25 >>
Time Temp. Humidity Pressure Rain* Wind** Luminosity Snow
1788479503 30.56° C 66% 1008.1 hPa 0 mm - 48 W/m² -
1788479197 31.11° C 66% 1007.9 hPa 0 mm - 54 W/m² -
1788478893 31.11° C 65% 1007.9 hPa 0 mm - 59 W/m² -
1788478589 31.11° C 65% 1007.8 hPa 0 mm - 64 W/m² -
1788478284 31.67° C 64% 1007.8 hPa 0 mm - 76 W/m² -
1788477979 31.67° C 64% 1007.6 hPa 0 mm - 85 W/m² -
1788477675 31.67° C 62% 1007.7 hPa 0 mm - 99 W/m² -
1788477369 32.22° C 61% 1007.6 hPa 0 mm - 119 W/m² -
1788477069 32.22° C 61% 1007.9 hPa 0 mm - 136 W/m² -
1788476765 32.22° C 61% 1007.7 hPa 0 mm - 150 W/m² -
1788476464 32.22° C 60% 1007.7 hPa 0 mm - 175 W/m² -
1788476161 32.78° C 60% 1007.7 hPa 0 mm - 191 W/m² -
1788475857 32.22° C 60% 1007.7 hPa 0 mm - 206 W/m² -
1788475553 32.22° C 59% 1007.7 hPa 0 mm - 227 W/m² -
1788475249 32.22° C 59% 1007.7 hPa 0 mm - 238 W/m² -
1788474943 32.78° C 59% 1007.7 hPa 0 mm - 245 W/m² -
1788474642 32.22° C 59% 1007.7 hPa 0 mm - 268 W/m² -
1788474337 32.78° C 58% 1007.7 hPa 0 mm - 285 W/m² -
1788474036 32.22° C 61% 1007.6 hPa 0 mm - 298 W/m² -
1788473732 32.22° C 61% 1007.5 hPa 0 mm - 308 W/m² -
1788473429 32.22° C 60% 1007.7 hPa 0 mm - 327 W/m² -
1788473128 32.22° C 61% 1007.7 hPa 0 mm - 347 W/m² -
1788472827 32.22° C 61% 1007.7 hPa 0 mm - 360 W/m² -
1788472522 32.22° C 61% 1007.7 hPa 0 mm - 376 W/m² -
1788472216 32.22° C 62% 1007.6 hPa 0 mm - 159 W/m² -

* Rain latest hour (hover to see other rain measurements)
** Current wind speed in m/s (hover to see current wind gust speed)